Regional Weather Roundup
Issued by NWS

Home | Current Version | Previous Version | Graphics & Text | Print | Product List | Glossary On
Versions: 1 2 3 4 5 6 7 8 9 10 11 12 13 14 15 16 17 18 19 20 21 22 23 24 25 26 27 28 29 30 31 32 33 34 35 36 37 38 39 40 41 42 43 44 45 46 47 48 49 50
000
ASUS43 KOAX 220010
RWRNE

WEATHER ROUNDUP FOR NEBRASKA
NATIONAL WEATHER SERVICE OMAHA NE
700 PM CDT THU SEP 21 2017

NOTES: SATELLITE DATA IS BEING USED TO AUGMENT CLOUD COVER ABOVE
       12000 FEET.
       "FAIR" INDICATES FEW OR NO CLOUDS BELOW 12,000 FEET WITH NO
       SIGNIFICANT WEATHER AND/OR OBSTRUCTIONS TO VISIBILITY.


NEZ001>004-019>022-054>056-220100-
NEBRASKA PANHANDLE

CITY           SKY/WX    TMP DP  RH WIND       PRES   REMARKS
SCOTTSBLUFF    CLEAR     83  38  20 E10       29.62F
6HR MIN TEMP:  74; 6HR MAX TEMP:  89;

ALLIANCE       CLEAR     81  46  29 E8        29.65F
6HR MIN TEMP:  76; 6HR MAX TEMP:  86;

CHADRON        CLEAR     87  32  14 SE10      29.61R
6HR MIN TEMP:  85; 6HR MAX TEMP:  92;

GORDON         FAIR      84  42  22 SE7       29.66S
6HR MIN TEMP:  78; 6HR MAX TEMP:  88;

KIMBALL        CLEAR     85  34  16 SE13      29.69F
SIDNEY         CLEAR     85  39  19 E12       29.66F
6HR MIN TEMP:  82; 6HR MAX TEMP:  91;

$$

NEZ057>060-069>072-079>082-220100-
SOUTHWEST NEBRASKA

CITY           SKY/WX    TMP DP  RH WIND       PRES   REMARKS
NORTH PLATTE   CLEAR     91  40  16 S13       29.61S
6HR MIN TEMP:  83; 6HR MAX TEMP:  96;

IMPERIAL       CLEAR     92  35  13 S20G31    29.61F
6HR MIN TEMP:  83; 6HR MAX TEMP:  98;

LEXINGTON      CLEAR     92  41  16 S14       29.64R
MCCOOK         LGT RAIN  92  42  17 S20G26    29.63R
6HR MIN TEMP:  88; 6HR MAX TEMP: 100; 6HR PCP: TRACE;

OGALLALA       CLEAR     94  29  10 S13G21    29.61R
$$

NEZ005>010-023>029-035>040-094-220100-
NORTH CENTRAL NEBRASKA

CITY           SKY/WX    TMP DP  RH WIND       PRES   REMARKS
VALENTINE      CLEAR     87  50  27 S13       29.63S
6HR MIN TEMP:  82; 6HR MAX TEMP:  91;

AINSWORTH      CLEAR     83  56  39 SE8       29.65S
BROKEN BOW     CLEAR     92  47  21 S14G23    29.64S
6HR MIN TEMP:  84; 6HR MAX TEMP:  94;

O`NEILL        CLEAR     87  68  52 SE12G17   29.66S HX  90
ORD            CLEAR     89  60  37 SE13      29.63S
6HR MIN TEMP:  82; 6HR MAX TEMP:  92;

THEDFORD       CLEAR     87  53  30 E6        29.65F
$$

NEZ041-046>049-061>064-073>077-083>087-220100-
SOUTH CENTRAL NEBRASKA

CITY           SKY/WX    TMP DP  RH WIND       PRES   REMARKS
GRAND ISLAND   CLEAR     89  67  47 SE18G25   29.67F HX  92
6HR MIN TEMP:  86; 6HR MAX TEMP:  92;

AURORA         CLEAR     88  65  47 SE14G21   29.68F
HASTINGS       CLEAR     91  63  39 S10       29.68S HX  92
6HR MIN TEMP:  88; 6HR MAX TEMP:  95;

HEBRON         CLEAR     91  69  47 S15G24    29.71R HX  95
HOLDREGE       CLEAR     90  42  18 S9        29.66S
KEARNEY        CLEAR     91  51  25 S14       29.66R
YORK           CLEAR     90  66  45 S16G24    29.70R HX  92
$$

NEZ011>018-030>034-042>045-220100-
NORTHEAST NEBRASKA

CITY           SKY/WX    TMP DP  RH WIND       PRES   REMARKS
NORFOLK        CLEAR     86  70  58 SE14G22   29.67S HX  90
6HR MIN TEMP:  83; 6HR MAX TEMP:  90;

ALBION         CLEAR     86  70  58 SE10      29.68R HX  90
BLAIR          CLEAR     88  72  58 S15G24    29.74S HX  94
COLUMBUS       CLEAR     88  71  57 SE13      29.69R HX  94
FREMONT        CLEAR     87  70  56 SE14      29.72S HX  92
TEKAMAH        CLEAR     86  71  60 S10       29.71S HX  91
6HR MIN TEMP:  85; 6HR MAX TEMP:  91;

WAYNE          CLEAR     84  74  72 S14       29.69S HX  91
$$

NEZ050>053-065>068-078-088>093-220100-
SOUTHEAST NEBRASKA

CITY           SKY/WX    TMP DP  RH WIND       PRES   REMARKS
LINCOLN        CLEAR     89  70  53 S18G31    29.71S HX  94
6HR MIN TEMP:  89; 6HR MAX TEMP:  95;

OMAHA EPPLEY   PTCLDY    89  71  55 S22G28    29.74R HX  95
6HR MIN TEMP:  87; 6HR MAX TEMP:  93;

BEATRICE       CLEAR     90  73  56 S15G24    29.73R HX  97
FALLS CITY     CLEAR     88  73  61 S16G23    29.78R HX  95
6HR MIN TEMP:  88; 6HR MAX TEMP:  92;

NEBRASKA CITY  CLEAR     87  74  66 S18G24    29.77S HX  95
PLATTSMOUTH    CLEAR     87  73  63 SE12G21   29.76R HX  95
$$

NEZ044-045-051>053-067-220100-
OMAHA AREA

CITY           SKY/WX    TMP DP  RH WIND       PRES   REMARKS
OMAHA EPPLEY   PTCLDY    89  71  55 S22G28    29.74R HX  95
6HR MIN TEMP:  87; 6HR MAX TEMP:  93;

BLAIR          CLEAR     88  72  58 S15G24    29.74S HX  94
FREMONT        CLEAR     87  70  56 SE14      29.72S HX  92
MILLARD        CLEAR     90  73  57 S14G20    29.74R HX  99
OFFUTT AFB     CLEAR     87  72  59 SE17      29.74R HX  94
PLATTSMOUTH    CLEAR     87  73  63 SE12G21   29.76R HX  95
WAHOO          FAIR      88  70  55 SE16      29.72S HX  92
$$




USA.gov is the U.S. government's official web portal to all federal, state and local government web resources and services.